This demonstration page uses our WeatherBlox Daily Observations layout. Learn more.

Left ArrowRight Arrow

Hourly Observations for May 9, 2022

Temp ( °F °C ) Dew Point ( °F °C ) Humidity (%) Winds ( mph kmh ) Pressure ( in mb ) Visibility ( mi km ) Precip ( " mm )
12:56 am 00:56 Mostly Cloudy 68 20 58 14.6 71 71 SE 17 28 29.50 999 10 16 0.00 0.00
1:56 am 01:56 Mostly Clear 66 19.1 59 14.8 76 76 SE 15 24 29.47 998 10 16 0.00 0.00
2:56 am 02:56 Partly Cloudy 67 19.5 59 15.1 76 76 SE 17 28 29.44 997 10 16 0.00 0.00
3:56 am 03:56 Mostly Clear 67 19.6 60 15.4 77 77 SE 15 24 29.40 996 10 16 0.00 0.00
4:56 am 04:56 Mostly Cloudy 68 19.8 61 16 79 79 SE 21 33 29.36 994 10 16 0.00 0.00
5:56 am 05:56 Mostly Cloudy 69 20.5 62 16.9 80 80 SSE 23 37 29.36 994 10 16 0.00 0.00
6:56 am 06:56 Mostly Cloudy 71 21.7 65 18.1 80 80 SSE 24 39 29.35 994 10 16 0.00 0.00
7:56 am 07:56 Partly Cloudy 72 22.2 65 18.6 80 80 SSE 22 35 29.37 995 10 16 0.00 0.00
8:56 am 08:56 Sunny 75 23.7 67 19.2 76 76 S 22 35 29.37 995 10 16 0.00 0.00
9:56 am 09:56 Sunny 80 26.6 67 19.7 66 66 S 17 28 29.38 995 10 16 0.00 0.00
10:56 am 10:56 Sunny 85 29.5 67 19.2 54 54 W 3 6 29.39 995 10 16 0.00 0.00
11:56 am 11:56 Mostly Sunny 89 31.4 62 16.9 42 42 SSW 21 33 29.41 996 10 16 0.00 0.00
12:56 pm 12:56 Sunny 91 32.8 59 14.8 34 34 SSW 18 30 29.43 997 8 13 0.00 0.00
1:56 pm 13:56 Sunny 93 33.9 52 11.1 25 25 SW 16 26 29.45 997 9 14 0.00 0.00
2:56 pm 14:56 Sunny 94 34.7 47 8.4 20 20 SSW 15 24 29.47 998 8 13 0.00 0.00
3:56 pm 15:56 Mostly Sunny 95 34.8 46 7.7 19 19 WSW 15 24 29.48 998 8 13 0.00 0.00
4:56 pm 16:56 Mostly Sunny 94 34.4 47 8.2 20 20 WSW 14 22 29.51 999 8 13 0.00 0.00
5:56 pm 17:56 Mostly Sunny 93 33.8 48 9.1 22 22 W 10 17 29.53 1000 7 11 0.00 0.00
6:56 pm 18:56 Mostly Sunny 89 31.5 56 13.2 33 33 NW 9 15 29.56 1001 8 13 0.00 0.00
8:56 pm 20:56 Mostly Clear 82 27.9 45 7.2 27 27 N 12 19 29.63 1004 10 16 0.00 0.00
9:56 pm 21:56 Mostly Clear 78 25.6 45 7.2 31 31 N 9 15 29.67 1005 10 16 0.00 0.00
10:56 pm 22:56 Clear 74 23.6 46 7.6 36 36 NE 8 13 29.70 1006 10 16 0.00 0.00
11:56 pm 23:56 Mostly Cloudy 73 22.6 46 7.9 39 39 NE 6 9 29.74 1007 10 16 0.00 0.00

Powered by AerisWeather